User: anonymous   Login
Location: Unspecified
(0.0000°N, 0.0000°E)
Time: 04:42:28
(UTC+00:00)
Language:

Courier 1B - Orbit

View from above orbital plane
View from above orbital plane
View from above satellite
View from above satellite

Ground track
Ground track

The orbit data is extracted from the following two-line orbital elements,

1    58U 60013A   18111.50759640 +.00000088 +00000-0 +85448-5 0  9991
2    58 028.3262 132.0541 0165020 025.8469 335.0215 13.46313334832353
Epoch (UTC): 21 April 2018 12:10:56
Eccentricity: 0.0165020
inclination: 28.3262°
perigee height: 962 km
apogee height: 1209 km
right ascension of ascending node: 132.0541°
argument of perigee: 25.8469°
revolutions per day: 13.46313334
mean anomaly at epoch: 335.0215°
orbit number at epoch: 83235

The dashed part of the orbit path shows where the satellite is in the earth's shadow,  

DLR